sat.trackr.live / text

‹ back to catalog

STARLINK-11453 [DTC]

NORAD 62411 · 2024-249C

PAYLOAD ACTIVE UNKNOWN

§ Identity

Operator
Country
US
Launch date
2024-12-23
Launch site
AFETR
Launch vehicle
Mass (kg)
RCS (m²)

Purposes: comms

External: N2YO · Heavens-Above · Gunter

§ Orbital elements

Epoch: 2026-05-25T03:09:27.074304Z

Period
91.67 min
Inclination
43.0016°
Eccentricity
0.0002205
Mean motion
15.70887422 rev/d
Perigee alt
354.9 km
Apogee alt
357.8 km
Semi-major
6,734.5 km
B*
1.4828e-3
RAAN
66.8262°
Arg perigee
257.2023°
Mean anomaly
102.8598°
Rev number
8,150

§ Raw data

STARLINK-11453 [DTC]1 62411U 24249C   26145.13156336  .00194735  00000+0  14828-2 0  99942 62411  43.0016  66.8262 0002205 257.2023 102.8598 15.70887422 81501

JSON: /api/v1/satellites/62411 · /tle

For live sub-satellite position, see the globe view (requires WebGL).

§ Visibility from observer

Set your observer location to see the next 7 days of passes ≥ 10°. The values pass through the URL so the page stays shareable.

No JS? Fill the form by hand. The geolocation button needs JavaScript.